Regional Weather Roundup
Issued by NWS

Home | Current Version | Previous Version | Graphics & Text | Print | Product List | Glossary On
Versions: 1 2 3 4 5 6 7 8 9 10 11 12 13 14 15 16 17 18 19 20 21 22 23 24 25 26 27 28 29 30 31 32 33 34 35 36 37 38 39 40 41 42 43 44 45 46 47 48 49 50
000
ASUS43 KBIS 270701
RWRND

NORTH DAKOTA REGIONAL WEATHER ROUNDUP
NATIONAL WEATHER SERVICE BISMARCK ND
100 AM CST FRI FEB 27 2015

NOTE: "FAIR" INDICATES FEW OR NO CLOUDS BELOW 12,000 FEET WITH NO
SIGNIFICANT WEATHER AND/OR OBSTRUCTIONS TO VISIBILITY.


NDZ001>003-009>011-017-270800-
NORTHWEST NORTH DAKOTA

CITY           SKY/WX    TMP DP  RH WIND       PRES   REMARKS
WILLISTON      PTCLDY    -8 -12  83 CALM      30.39F
MINOT          PTCLDY   -10 -17  71 SW6       30.42F WCI -23
$$

NDZ018>021-031>035-040>046-270800-
SOUTHWEST NORTH DAKOTA

CITY           SKY/WX    TMP DP  RH WIND       PRES   REMARKS
BISMARCK       CLEAR     -8 -13  78 SW3       30.48F
DICKINSON      CLEAR     -4 -10  75 S8        30.33F WCI -19
GARRISON         N/A    -11 -16  78 CALM      30.42F
HETTINGER ARPT CLEAR     -7 -11  83 CALM      30.37F
$$

NDZ004>008-012>016-024-026-027-054-270800-
NORTHEAST NORTH DAKOTA

CITY           SKY/WX    TMP DP  RH WIND       PRES   REMARKS
GRAND FORKS    PTCLDY    -9 -14  78 W7        30.47F WCI -24
GRND FRKS AFB  PTCLDY    -6 -14  69 NW7       30.47S WCI -21
DEVILS LAKE    CLEAR    N/A N/A N/A MISG        N/A
$$

NDZ022-023-025-028>030-036>039-047>053-270800-
SOUTHEAST NORTH DAKOTA

CITY           SKY/WX    TMP DP  RH WIND       PRES   REMARKS
FARGO          CLEAR     -6 -13  71 W7        30.50F WCI -20
JAMESTOWN      PTCLDY    -8 -14  74 W8        30.45F WCI -24
$$




USA.gov is the U.S. government's official web portal to all federal, state and local government web resources and services.